Flag for U.S.A. Weather past 2 weeks in Portsmouth, Virginia, U.S.A.

Now
82 °F

Broken clouds.


Feels Like: 87 °F
Forecast: 74 / 85 °F
Wind: 7 mph from Southwest

Location: Norfolk Naval Air Station

Current Time: Jul 4, 2015 at 8:56:55 PM

Latest Report: Jul 4, 2015 at 7:59 PM


Visibility: 10 mi

Pressure: 29.95 "Hg

Humidity: 72%

Dew point: 72 °F

Location of PortsmouthLocation

Historic Weather in Portsmouth — Graph

°F

Portsmouth temperature yesterday

Maximum temperature yesterday: 81 °F (at 12:59 PM)
Minimum temperature yesterday: 72 °F (at 2:59 AM)
Average temperature yesterday: 76 °F

Past Weeks' High & Low Weather Summary

 TemperatureHumidityPressure
High96 °F (Jun 23, 1:59 PM)97% (Jun 24, 1:59 AM)30.12 "Hg (Jun 24, 1:59 AM)
Low62 °F (Jun 29, 4:59 AM)43% (Jun 30, 12:59 PM)29.70 "Hg (Jun 28, 2:59 AM)
Average79 °F72%29.94 "Hg
* Reported Jun 19 6:59 PM — Jul 4 6:59 PM, Portsmouth, Weather by CustomWeather, © 2015

Note: Actual official high and low records may vary slightly from our data, if they occured in-between our weather recording intervals... More about our weather records

Advertising

Portsmouth weather history for previous 24 hours

 ConditionsComfort  
Time TempWeatherWind HumidityBarometerVisibility
6:59 PM
Sat, Jul 4
84 °FBroken clouds.9 mph59%29.93 "Hg10 mi
5:59 PM86 °FPartly sunny.8 mph57%29.92 "Hg10 mi
4:59 PM86 °FPartly sunny.13 mph57%29.91 "Hg10 mi
3:59 PM85 °FPartly sunny.10 mph63%29.91 "Hg9 mi
2:59 PM79 °FPartly sunny.10 mph82%29.93 "Hg7 mi
1:59 PM83 °FPartly sunny.14 mph65%29.93 "Hg8 mi
12:59 PM82 °FBroken clouds.13 mph70%29.94 "Hg8 mi
11:59 AM81 °FPartly sunny.13 mph69%29.94 "Hg8 mi
10:59 AM78 °FBroken clouds.14 mph76%29.93 "Hg9 mi
9:59 AM77 °FBroken clouds.8 mph79%29.91 "Hg9 mi
8:59 AM75 °FBroken clouds.12 mph85%29.91 "Hg9 mi
7:59 AM73 °FMostly cloudy.15 mph88%29.91 "Hg8 mi
6:59 AM72 °FMostly cloudy.14 mph91%29.88 "Hg9 mi
5:59 AM73 °FMostly cloudy.12 mph88%29.86 "Hg10 mi
4:59 AM73 °FPartly cloudy.10 mph97%29.83 "Hg8 mi
3:59 AM74 °FPartly cloudy.8 mph94%29.84 "Hg8 mi
2:59 AM74 °FLight rain. Mostly cloudy.6 mph94%29.85 "Hg7 mi
1:59 AM73 °FFog.3 mph97%29.86 "Hg5 mi
12:59 AM73 °FFog.3 mph97%29.87 "Hg5 mi
11:59 PM
Fri, Jul 3
74 °FRain. Fog.6 mph97%29.88 "Hg3 mi
10:59 PM74 °FRain. Fog.7 mph94%29.90 "Hg5 mi
9:59 PM73 °FRain. Fog.7 mph90%29.92 "Hg6 mi
8:59 PM73 °FRain. Cloudy.No wind90%29.92 "Hg4 mi
Weather by CustomWeather, © 2015

See weather overviewHow to use our weather pages